Weather Roundup
Issued by NWS Chicago, IL

Home | Current Version | Previous Version | Text Only | Print | Product List | Glossary Off
Versions: 1 2 3 4 5 6 7 8 9 10 11 12 13 14 15 16 17 18 19 20 21 22 23 24 25 26 27 28 29 30 31 32 33 34 35 36 37 38 39 40 41 42 43 44 45 46 47 48 49 50

000
NZUS59 KLOT 202206
HRRLOT

CHICAGO AREA WEATHER ROUNDUP
NATIONAL WEATHER SERVICE CHICAGO/ROMEOVILLE IL
500 PM CDT MON OCT 20 2014

NOTE: "FAIR" INDICATES FEW OR NO CLOUDS BELOW 12,000 FEET WITH NO
SIGNIFICANT WEATHER AND/OR OBSTRUCTIONS TO VISIBILITY.

* THESE STATIONS ARE NOT UNDER NWS QUALITY CONTROL. THEY ALSO MAY NOT
  REPORT WEATHER SUCH AS PRECIPITATION OR FOG.

ILZ005-006-012>014-019>023-202300-
NORTHEAST ILLINOIS

CITY           SKY/WX    TMP DP  RH WIND       PRES   REMARKS
OHARE          PTSUNNY   56  47  71 NE10      29.91R
MIDWAY         PTSUNNY   59  49  69 N13       29.90R
AURORA         PTSUNNY   60  41  49 N15       29.91R
LANSING*       CLOUDY    56  49  76 NE9       29.90R
JOLIET*        PTSUNNY   62  43  49 N10G20    29.91R
WAUKEGAN       CLOUDY    53  45  74 N3        29.91R
DUPAGE AIRPORT CLOUDY    60  42  51 N14       29.91R
WHEELING       CLOUDY    56  46  69 NE7       29.93R
KANKAKEE*      MOSUNNY   63  47  55 NW8       29.89R
MORRIS*        PTSUNNY   64  45  50 N8        29.90R
LEWIS AIRPORT* MOSUNNY   60  40  47 N14G22    29.91R
NORTHERLY IS     N/A     55  48  77 MISG        N/A
$$

WIZ051-052-058>065-066-070>072-202300-
SOUTHEAST WISCONSIN

CITY           SKY/WX    TMP DP  RH WIND       PRES   REMARKS
MILWAUKEE      CLOUDY    54  41  61 NW9       29.92R
KENOSHA*       CLOUDY    55  45  68 NW12G18   29.92R
RACINE*        CLOUDY    54  43  66 NW9       29.93R
BURLINGTON     CLOUDY    53  41  64 N10       29.93R
WEST BEND      CLOUDY    52  41  66 NW8       29.92R
$$

INZ001>003-010>013-019-020-202300-
NORTHWEST INDIANA

CITY           SKY/WX    TMP DP  RH WIND       PRES   REMARKS
GARY*          MOCLDY    57  50  77 N10       29.90R
MICHIGAN CITY* NOT AVBL
RENSSELAER*    NOT AVBL
VALPARAISO     CLOUDY    55  48  77 N10       29.89R
$$

LMZ740>746-202300-
SOUTHERN LAKE MICHIGAN

STATION/POSITION TIME  SKY/WX   TEMP WIND        PRES    VSBY
                                AIR  DIR/SP/G
                 (UTC)          (F)  (DEG/KT/KT) (MB)    (MI)
HARRISON CRIB    2200            54  350/ 17/ 19   N/A
BURNHAM HARBOR   2200            55   10/ 10/ 14   N/A
CALUMET HARBOR   2200            55  350/ 10/ 13 1011.6R
BURNS HARBOR     NOT AVBL
MICHIGAN CITY    2200            53  350/ 18/ 20   N/A
$$

ABBREVIATIONS USED IN REMARKS
   TC - TEMPERATURE IN CELSIUS
  WCI - WIND CHILL INDEX
   HX - HEAT INDEX
  VSB - VISIBILITY
$$


USA.gov is the U.S. government's official web portal to all federal, state and local government web resources and services.